| time (UTC) | temp C | wind direction | speed KPH | gust KPH | rain 1hr cm | rain 24hr cm | rain mn cm | humidity % | barometer mb |
| 20260906123048 | 17 | 45 | 4.8 | 6.4 | 0.00 | 0.00 | 0.00 | 95 | 1020.8 |
| 20260906122524 | 16 | 45 | 1.6 | 4.8 | 0.00 | 0.00 | 0.00 | 95 | 1020.7 |
| 20260906122022 | 16 | 45 | 3.2 | 8.0 | 0.00 | 0.00 | 0.00 | 95 | 1020.7 |
| 20260906121537 | 16 | 45 | 3.2 | 8.0 | 0.00 | 0.00 | 0.00 | 95 | 1020.7 |
| 20260906121033 | 16 | 34 | 3.2 | 6.4 | 0.00 | 0.00 | 0.00 | 95 | 1020.6 |
| 20260906120530 | 16 | 355 | 0.0 | 6.4 | 0.00 | 0.00 | 0.00 | 95 | 1020.6 |
| 20260906120020 | 16 | 355 | 3.2 | 6.4 | 0.00 | 0.00 | 0.00 | 95 | 1020.6 |
| 20260906115535 | 16 | 342 | 1.6 | 4.8 | 0.00 | 0.00 | 0.00 | 95 | 1020.6 |
| 20260906115020 | 16 | 342 | 3.2 | 4.8 | 0.00 | 0.00 | 0.00 | 94 | 1020.5 |
| 20260906114535 | 16 | 342 | 3.2 | 4.8 | 0.00 | 0.00 | 0.00 | 95 | 1020.5 |
| 20260906114033 | 16 | 342 | 1.6 | 4.8 | 0.00 | 0.00 | 0.00 | 95 | 1020.5 |
| 20260906113517 | 16 | 342 | 1.6 | 6.4 | 0.00 | 0.00 | 0.00 | 95 | 1020.5 |
| 20260906113028 | 16 | 355 | 3.2 | 6.4 | 0.00 | 0.00 | 0.00 | 95 | 1020.4 |
| 20260906112524 | 16 | 25 | 3.2 | 6.4 | 0.00 | 0.00 | 0.00 | 94 | 1020.2 |
| 20260906112019 | 16 | 25 | 0.0 | 0.0 | 0.00 | 0.00 | 0.00 | 94 | 1020.0 |
| 20260906111536 | 16 | 25 | 0.0 | 0.0 | 0.00 | 0.00 | 0.00 | 94 | 1019.8 |
| 20260906111050 | 17 | 25 | 0.0 | 3.2 | 0.00 | 0.00 | 0.00 | 94 | 1019.8 |
| 20260906110523 | 17 | 25 | 1.6 | 3.2 | 0.00 | 0.00 | 0.00 | 94 | 1019.7 |
| 20260906110046 | 16 | 25 | 0.0 | 6.4 | 0.00 | 0.00 | 0.00 | 94 | 1019.6 |
| 20260906105556 | 16 | 25 | 1.6 | 6.4 | 0.00 | 0.00 | 0.00 | 94 | 1019.6 |
| 20260906105030 | 16 | 25 | 0.0 | 6.4 | 0.00 | 0.00 | 0.00 | 94 | 1019.5 |
| 20260906104533 | 16 | 25 | 3.2 | 4.8 | 0.00 | 0.00 | 0.00 | 94 | 1019.6 |
| 20260906104028 | 16 | 25 | 1.6 | 4.8 | 0.00 | 0.00 | 0.00 | 94 | 1019.6 |
| 20260906103541 | 16 | 25 | 3.2 | 4.8 | 0.00 | 0.00 | 0.00 | 94 | 1019.7 |
| 20260906103018 | 16 | 25 | 0.0 | 1.6 | 0.00 | 0.00 | 0.00 | 94 | 1019.7 |
| 20260906102532 | 17 | 25 | 0.0 | 0.0 | 0.00 | 0.00 | 0.00 | 94 | 1019.7 |
| 20260906102035 | 17 | 25 | 0.0 | 0.0 | 0.00 | 0.00 | 0.00 | 94 | 1019.6 |
| 20260906101546 | 17 | 25 | 0.0 | 4.8 | 0.00 | 0.00 | 0.00 | 94 | 1019.5 |
| 20260906101022 | 17 | 25 | 0.0 | 4.8 | 0.00 | 0.00 | 0.00 | 94 | 1019.4 |
| 20260906100537 | 17 | 25 | 0.0 | 0.0 | 0.00 | 0.00 | 0.00 | 94 | 1019.3 |
| 20260906100030 | 17 | 25 | 0.0 | 3.2 | 0.00 | 0.03 | 0.00 | 94 | 1019.3 |
| 20260906095536 | 17 | 25 | 0.0 | 6.4 | 0.00 | 0.03 | 0.00 | 94 | 1019.4 |
| 20260906095051 | 17 | 25 | 3.2 | 6.4 | 0.00 | 0.03 | 0.00 | 94 | 1019.4 |
| 20260906094519 | 17 | 25 | 3.2 | 8.0 | 0.00 | 0.03 | 0.00 | 94 | 1019.4 |
| 20260906094032 | 17 | 25 | 3.2 | 8.0 | 0.00 | 0.03 | 0.00 | 94 | 1019.5 |
| 20260906093522 | 17 | 36 | 4.8 | 8.0 | 0.00 | 0.03 | 0.00 | 94 | 1019.6 |
| 20260906093031 | 17 | 110 | 1.6 | 4.8 | 0.00 | 0.03 | 0.00 | 94 | 1019.6 |
| 20260906092536 | 17 | 110 | 1.6 | 6.4 | 0.00 | 0.03 | 0.00 | 94 | 1019.7 |
| 20260906092018 | 17 | 110 | 3.2 | 6.4 | 0.00 | 0.03 | 0.00 | 94 | 1019.7 |
| 20260906091538 | 17 | 110 | 1.6 | 6.4 | 0.00 | 0.03 | 0.00 | 94 | 1019.7 |
| 20260906091048 | 17 | 110 | 3.2 | 6.4 | 0.00 | 0.03 | 0.00 | 94 | 1019.4 |
| 20260906090521 | 17 | 110 | 3.2 | 4.8 | 0.00 | 0.03 | 0.00 | 94 | 1019.4 |
| 20260906090033 | 17 | 110 | 3.2 | 4.8 | 0.00 | 0.03 | 0.00 | 94 | 1019.2 |
| 20260906085529 | 17 | 110 | 1.6 | 4.8 | 0.00 | 0.03 | 0.00 | 93 | 1019.3 |
| 20260906085023 | 17 | 110 | 1.6 | 6.4 | 0.00 | 0.03 | 0.00 | 93 | 1019.3 |
| 20260906084527 | 17 | 110 | 3.2 | 6.4 | 0.00 | 0.03 | 0.00 | 93 | 1019.3 |
| 20260906084020 | 17 | 110 | 3.2 | 6.4 | 0.00 | 0.03 | 0.00 | 93 | 1019.3 |
| 20260906083536 | 17 | 110 | 1.6 | 6.4 | 0.00 | 0.03 | 0.00 | 94 | 1019.4 |
| 20260906083034 | 17 | 110 | 1.6 | 6.4 | 0.00 | 0.03 | 0.00 | 93 | 1019.4 |
| 20260906082532 | 17 | 110 | 3.2 | 6.4 | 0.00 | 0.03 | 0.00 | 93 | 1019.2 |
| 20260906082025 | 17 | 110 | 3.2 | 6.4 | 0.00 | 0.03 | 0.00 | 93 | 1019.0 |
| 20260906081530 | 17 | 110 | 3.2 | 6.4 | 0.00 | 0.03 | 0.00 | 92 | 1019.2 |
| 20260906081023 | 17 | 110 | 1.6 | 4.8 | 0.00 | 0.03 | 0.00 | 92 | 1019.1 |
| 20260906080520 | 17 | 110 | 1.6 | 4.8 | 0.00 | 0.03 | 0.00 | 92 | 1019.1 |
| 20260906080029 | 17 | 110 | 1.6 | 3.2 | 0.00 | 0.03 | 0.00 | 92 | 1019.0 |
| 20260906075525 | 17 | 110 | 0.0 | 1.6 | 0.00 | 0.03 | 0.00 | 92 | 1019.1 |
| 20260906075018 | 17 | 110 | 0.0 | 3.2 | 0.00 | 0.03 | 0.00 | 92 | 1019.0 |
| 20260906074532 | 17 | 110 | 1.6 | 3.2 | 0.00 | 0.03 | 0.00 | 92 | 1019.1 |
| 20260906074047 | 17 | 110 | 0.0 | 0.0 | 0.00 | 0.03 | 0.00 | 92 | 1019.2 |
| 20260906073542 | 17 | 110 | 0.0 | 0.0 | 0.00 | 0.03 | 0.00 | 92 | 1019.1 |
| 20260906073022 | 17 | 110 | 0.0 | 0.0 | 0.00 | 0.03 | 0.00 | 92 | 1019.1 |
| 20260906072517 | 17 | 110 | 0.0 | 1.6 | 0.00 | 0.03 | 0.00 | 92 | 1019.3 |
| 20260906072038 | 17 | 110 | 0.0 | 1.6 | 0.00 | 0.03 | 0.00 | 92 | 1019.2 |
| 20260906071535 | 17 | 110 | 0.0 | 1.6 | 0.00 | 0.03 | 0.00 | 92 | 1019.2 |
| 20260906071030 | 17 | 110 | 0.0 | 3.2 | 0.00 | 0.03 | 0.00 | 92 | 1019.2 |
| 20260906070527 | 17 | 110 | 0.0 | 4.8 | 0.00 | 0.03 | 0.00 | 92 | 1019.4 |
| 20260906070032 | 17 | 110 | 3.2 | 4.8 | 0.00 | 0.03 | 0.00 | 92 | 1019.4 |
| 20260906065540 | 18 | 110 | 1.6 | 4.8 | 0.00 | 0.03 | 0.00 | 92 | 1019.4 |
| 20260906065035 | 18 | 110 | 3.2 | 4.8 | 0.00 | 0.03 | 0.00 | 92 | 1019.4 |
| 20260906064524 | 18 | 110 | 3.2 | 4.8 | 0.00 | 0.03 | 0.00 | 92 | 1019.4 |
| 20260906064020 | 18 | 110 | 1.6 | 4.8 | 0.00 | 0.03 | 0.00 | 92 | 1019.4 |
| 20260906063537 | 18 | 110 | 3.2 | 4.8 | 0.00 | 0.03 | 0.00 | 92 | 1019.6 |
| 20260906063052 | 18 | 110 | 1.6 | 6.4 | 0.00 | 0.03 | 0.00 | 92 | 1019.4 |
| 20260906062517 | 18 | 110 | 0.0 | 3.2 | 0.00 | 0.03 | 0.00 | 92 | 1019.5 |
| 20260906062033 | 18 | 110 | 0.0 | 0.0 | 0.00 | 0.03 | 0.00 | 92 | 1019.4 |
| 20260906061532 | 18 | 110 | 0.0 | 0.0 | 0.00 | 0.03 | 0.00 | 92 | 1019.5 |
| 20260906061057 | 18 | 110 | 0.0 | 3.2 | 0.00 | 0.03 | 0.00 | 92 | 1019.5 |
| 20260906060523 | 18 | 110 | 0.0 | 3.2 | 0.00 | 0.03 | 0.00 | 92 | 1019.5 |
| 20260906060018 | 18 | 110 | 0.0 | 1.6 | 0.00 | 0.03 | 0.00 | 92 | 1019.5 |
| 20260906055537 | 18 | 110 | 0.0 | 1.6 | 0.00 | 0.03 | 0.00 | 92 | 1019.5 |
| 20260906055030 | 18 | 110 | 0.0 | 1.6 | 0.00 | 0.03 | 0.00 | 92 | 1019.5 |
| 20260906054530 | 18 | 110 | 0.0 | 1.6 | 0.00 | 0.03 | 0.00 | 91 | 1019.5 |
| 20260906054023 | 18 | 110 | 0.0 | 3.2 | 0.00 | 0.03 | 0.00 | 91 | 1019.3 |
| 20260906053534 | 18 | 110 | 0.0 | 3.2 | 0.00 | 0.03 | 0.00 | 92 | 1019.3 |
| 20260906053032 | 19 | 110 | 1.6 | 4.8 | 0.00 | 0.03 | 0.00 | 92 | 1019.4 |
| 20260906052519 | 19 | 110 | 1.6 | 4.8 | 0.00 | 0.03 | 0.00 | 91 | 1019.3 |
| 20260906052034 | 19 | 110 | 0.0 | 4.8 | 0.00 | 0.03 | 0.00 | 91 | 1019.3 |
| 20260906051554 | 19 | 110 | 0.0 | 4.8 | 0.00 | 0.03 | 0.00 | 91 | 1019.4 |
| 20260906051029 | 19 | 110 | 3.2 | 6.4 | 0.00 | 0.03 | 0.00 | 91 | 1019.3 |
| 20260906050521 | 19 | 110 | 3.2 | 6.4 | 0.00 | 0.03 | 0.00 | 91 | 1019.2 |
| 20260906050025 | 19 | 110 | 1.6 | 4.8 | 0.00 | 0.03 | 0.03 | 91 | 1019.2 |
| 20260906045520 | 19 | 110 | 1.6 | 6.4 | 0.00 | 0.03 | 0.03 | 91 | 1019.1 |
| 20260906045035 | 19 | 110 | 3.2 | 6.4 | 0.00 | 0.03 | 0.03 | 91 | 1019.1 |
| 20260906044534 | 19 | 110 | 3.2 | 4.8 | 0.00 | 0.03 | 0.03 | 91 | 1019.1 |
| 20260906044028 | 20 | 110 | 3.2 | 4.8 | 0.00 | 0.03 | 0.03 | 90 | 1019.1 |
| 20260906043518 | 20 | 110 | 1.6 | 4.8 | 0.00 | 0.03 | 0.03 | 91 | 1019.0 |
| 20260906043036 | 20 | 110 | 1.6 | 4.8 | 0.00 | 0.03 | 0.03 | 91 | 1019.1 |
| 20260906042533 | 20 | 110 | 3.2 | 4.8 | 0.00 | 0.03 | 0.03 | 90 | 1019.1 |
| 20260906042018 | 20 | 110 | 3.2 | 4.8 | 0.00 | 0.03 | 0.03 | 90 | 1019.0 |
| 20260906041536 | 20 | 110 | 1.6 | 4.8 | 0.00 | 0.03 | 0.03 | 90 | 1018.9 |
| 20260906041026 | 20 | 110 | 1.6 | 4.8 | 0.00 | 0.03 | 0.03 | 90 | 1019.0 |
| 20260906040521 | 20 | 110 | 0.0 | 4.8 | 0.00 | 0.03 | 0.03 | 90 | 1019.0 |
| 20260906040019 | 20 | 110 | 1.6 | 6.4 | 0.00 | 0.03 | 0.03 | 90 | 1018.8 |
| 20260906035531 | 20 | 110 | 0.0 | 6.4 | 0.00 | 0.03 | 0.03 | 90 | 1018.6 |
| 20260906035044 | 20 | 110 | 1.6 | 11.3 | 0.00 | 0.03 | 0.03 | 90 | 1018.6 |
| 20260906034521 | 20 | 104 | 4.8 | 11.3 | 0.00 | 0.03 | 0.03 | 90 | 1018.6 |
| 20260906034031 | 20 | 113 | 4.8 | 9.7 | 0.00 | 0.03 | 0.03 | 90 | 1018.7 |
| 20260906033540 | 20 | 75 | 4.8 | 9.7 | 0.00 | 0.03 | 0.03 | 89 | 1018.8 |
| 20260906033026 | 21 | 117 | 3.2 | 9.7 | 0.00 | 0.03 | 0.03 | 89 | 1018.8 |
| 20260906032524 | 21 | 48 | 4.8 | 12.9 | 0.00 | 0.03 | 0.03 | 89 | 1018.9 |
| 20260906032036 | 21 | 86 | 4.8 | 14.5 | 0.00 | 0.03 | 0.03 | 89 | 1018.8 |
| 20260906031530 | 21 | 92 | 6.4 | 14.5 | 0.00 | 0.03 | 0.03 | 89 | 1018.8 |
| 20260906031024 | 21 | 65 | 6.4 | 12.9 | 0.00 | 0.03 | 0.03 | 89 | 1018.6 |
| 20260906030520 | 21 | 86 | 3.2 | 9.7 | 0.00 | 0.03 | 0.03 | 89 | 1018.7 |
| 20260906030032 | 21 | 69 | 4.8 | 11.3 | 0.00 | 0.03 | 0.03 | 89 | 1018.6 |
| 20260906025530 | 21 | 107 | 6.4 | 11.3 | 0.00 | 0.03 | 0.03 | 89 | 1018.6 |
| 20260906025039 | 21 | 107 | 4.8 | 9.7 | 0.00 | 0.03 | 0.03 | 89 | 1018.5 |
| 20260906024516 | 21 | 98 | 4.8 | 9.7 | 0.00 | 0.03 | 0.03 | 88 | 1018.4 |
| 20260906024031 | 21 | 116 | 4.8 | 16.1 | 0.00 | 0.03 | 0.03 | 88 | 1018.4 |
| 20260906023542 | 21 | 118 | 6.4 | 16.1 | 0.00 | 0.03 | 0.03 | 88 | 1018.1 |
| 20260906023020 | 21 | 72 | 4.8 | 11.3 | 0.00 | 0.03 | 0.03 | 88 | 1018.1 |
| 20260906022531 | 22 | 96 | 4.8 | 17.7 | 0.00 | 0.03 | 0.03 | 87 | 1018.1 |
| 20260906022037 | 22 | 69 | 4.8 | 17.7 | 0.00 | 0.03 | 0.03 | 87 | 1018.0 |
| 20260906021523 | 22 | 59 | 8.0 | 17.7 | 0.00 | 0.03 | 0.03 | 87 | 1018.0 |
| 20260906021021 | 22 | 123 | 4.8 | 17.7 | 0.00 | 0.03 | 0.03 | 87 | 1017.9 |
| 20260906020535 | 22 | 102 | 6.4 | 19.3 | 0.00 | 0.03 | 0.03 | 87 | 1017.7 |
| 20260906020045 | 22 | 93 | 9.7 | 19.3 | 0.00 | 0.03 | 0.03 | 88 | 1017.7 |
| 20260906015534 | 22 | 91 | 3.2 | 17.7 | 0.00 | 0.03 | 0.03 | 88 | 1017.5 |
| 20260906015038 | 22 | 103 | 8.0 | 17.7 | 0.00 | 0.03 | 0.03 | 88 | 1017.2 |
| 20260906014535 | 22 | 75 | 6.4 | 11.3 | 0.00 | 0.03 | 0.03 | 88 | 1017.2 |
| 20260906014029 | 22 | 76 | 4.8 | 11.3 | 0.00 | 0.03 | 0.03 | 88 | 1017.1 |
| 20260906013523 | 22 | 92 | 4.8 | 11.3 | 0.00 | 0.03 | 0.03 | 88 | 1017.0 |
| 20260906013048 | 22 | 78 | 3.2 | 14.5 | 0.00 | 0.03 | 0.03 | 88 | 1017.0 |
| 20260906012524 | 22 | 44 | 3.2 | 14.5 | 0.00 | 0.03 | 0.03 | 87 | 1017.0 |
| 20260906012039 | 22 | 57 | 6.4 | 9.7 | 0.00 | 0.03 | 0.03 | 87 | 1016.9 |
| 20260906011539 | 22 | 65 | 4.8 | 9.7 | 0.00 | 0.03 | 0.03 | 87 | 1016.9 |
| 20260906011034 | 22 | 75 | 3.2 | 12.9 | 0.00 | 0.03 | 0.03 | 86 | 1017.0 |
| 20260906010525 | 22 | 51 | 4.8 | 9.7 | 0.00 | 0.03 | 0.03 | 86 | 1017.1 |
| 20260906010032 | 22 | 63 | 3.2 | 11.3 | 0.00 | 0.03 | 0.03 | 86 | 1017.2 |
| 20260906005529 | 22 | 63 | 4.8 | 11.3 | 0.00 | 0.03 | 0.03 | 86 | 1017.3 |
| 20260906005023 | 22 | 78 | 6.4 | 11.3 | 0.00 | 0.03 | 0.03 | 86 | 1017.3 |
| 20260906004555 | 22 | 19 | 3.2 | 8.0 | 0.00 | 0.03 | 0.03 | 87 | 1017.3 |
| 20260906004025 | 22 | 74 | 3.2 | 9.7 | 0.00 | 0.03 | 0.03 | 87 | 1017.5 |
| 20260906003521 | 22 | 53 | 4.8 | 8.0 | 0.00 | 0.03 | 0.03 | 87 | 1017.3 |
| 20260906003028 | 22 | 30 | 1.6 | 4.8 | 0.00 | 0.03 | 0.03 | 87 | 1017.2 |
| 20260906002524 | 22 | 30 | 1.6 | 6.4 | 0.00 | 0.03 | 0.03 | 86 | 1017.3 |
| 20260906002039 | 23 | 30 | 1.6 | 8.0 | 0.00 | 0.03 | 0.03 | 85 | 1017.3 |
| 20260906001533 | 23 | 30 | 3.2 | 8.0 | 0.00 | 0.03 | 0.03 | 85 | 1017.3 |
| 20260906001027 | 23 | 59 | 3.2 | 9.7 | 0.00 | 0.03 | 0.03 | 85 | 1017.2 |
| 20260906000520 | 23 | 22 | 4.8 | 11.3 | 0.00 | 0.03 | 0.03 | 84 | 1017.3 |
| 20260906000028 | 23 | 51 | 4.8 | 9.7 | 0.00 | 0.03 | 0.03 | 84 | 1017.2 |
| 20260905235521 | 23 | 24 | 4.8 | 9.7 | 0.00 | 0.03 | 0.03 | 83 | 1017.2 |
| 20260905235031 | 23 | 44 | 6.4 | 11.3 | 0.00 | 0.03 | 0.03 | 82 | 1017.2 |
| 20260905234519 | 23 | 74 | 4.8 | 12.9 | 0.00 | 0.03 | 0.03 | 82 | 1017.3 |
| 20260905234035 | 24 | 46 | 6.4 | 16.1 | 0.00 | 0.03 | 0.03 | 81 | 1017.2 |
| 20260905233519 | 24 | 41 | 6.4 | 11.3 | 0.00 | 0.03 | 0.03 | 79 | 1017.3 |
| 20260905232530 | 25 | 55 | 3.2 | 16.1 | 0.00 | 0.03 | 0.03 | 78 | 1017.4 |
| 20260905232020 | 25 | 44 | 6.4 | 14.5 | 0.00 | 0.03 | 0.03 | 79 | 1017.3 |
| 20260905231538 | 25 | 59 | 6.4 | 12.9 | 0.00 | 0.03 | 0.03 | 78 | 1017.3 |
| 20260905231033 | 25 | 22 | 6.4 | 12.9 | 0.00 | 0.03 | 0.03 | 77 | 1017.3 |
| 20260905230530 | 25 | 35 | 6.4 | 20.9 | 0.00 | 0.03 | 0.03 | 77 | 1017.3 |
| 20260905230030 | 25 | 61 | 6.4 | 20.9 | 0.00 | 0.03 | 0.03 | 77 | 1017.2 |
| 20260905225522 | 25 | 47 | 6.4 | 11.3 | 0.00 | 0.03 | 0.03 | 77 | 1017.2 |
| 20260905225018 | 25 | 67 | 3.2 | 9.7 | 0.00 | 0.03 | 0.03 | 79 | 1017.3 |
| 20260905224556 | 25 | 44 | 6.4 | 9.7 | 0.00 | 0.03 | 0.03 | 79 | 1017.3 |
| 20260905224048 | 25 | 38 | 3.2 | 14.5 | 0.00 | 0.03 | 0.03 | 80 | 1017.4 |
| 20260905223525 | 25 | 38 | 6.4 | 14.5 | 0.00 | 0.03 | 0.03 | 79 | 1017.4 |
| 20260905223038 | 25 | 40 | 6.4 | 19.3 | 0.00 | 0.03 | 0.03 | 78 | 1017.3 |
| 20260905222533 | 25 | 15 | 8.0 | 20.9 | 0.00 | 0.03 | 0.03 | 76 | 1017.3 |
| 20260905222017 | 25 | 87 | 12.9 | 25.7 | 0.00 | 0.03 | 0.03 | 75 | 1017.3 |
| 20260905221528 | 26 | 40 | 12.9 | 25.7 | 0.00 | 0.03 | 0.03 | 75 | 1017.3 |
| 20260905221022 | 26 | 48 | 8.0 | 19.3 | 0.00 | 0.03 | 0.03 | 77 | 1017.1 |
| 20260905220532 | 26 | 88 | 8.0 | 19.3 | 0.00 | 0.03 | 0.03 | 76 | 1016.9 |
| 20260905220031 | 26 | 53 | 11.3 | 16.1 | 0.00 | 0.03 | 0.03 | 77 | 1016.9 |
| 20260905215554 | 26 | 17 | 6.4 | 16.1 | 0.00 | 0.03 | 0.03 | 76 | 1016.8 |
| 20260905215025 | 26 | 40 | 8.0 | 19.3 | 0.00 | 0.03 | 0.03 | 78 | 1016.9 |
| 20260905214541 | 26 | 13 | 8.0 | 19.3 | 0.00 | 0.03 | 0.03 | 77 | 1017.0 |
| 20260905214020 | 26 | 330 | 8.0 | 16.1 | 0.00 | 0.03 | 0.03 | 77 | 1017.1 |
| 20260905213533 | 26 | 34 | 6.4 | 16.1 | 0.00 | 0.03 | 0.03 | 77 | 1017.0 |
| 20260905213050 | 25 | 313 | 6.4 | 12.9 | 0.00 | 0.03 | 0.03 | 77 | 1017.0 |
| 20260905212525 | 25 | 302 | 8.0 | 12.9 | 0.00 | 0.03 | 0.03 | 76 | 1017.1 |
| 20260905212021 | 26 | 10 | 8.0 | 14.5 | 0.00 | 0.03 | 0.03 | 75 | 1017.0 |
| 20260905211520 | 26 | 334 | 8.0 | 14.5 | 0.00 | 0.03 | 0.03 | 77 | 1017.2 |
| 20260905211029 | 26 | 17 | 6.4 | 14.5 | 0.00 | 0.03 | 0.03 | 76 | 1017.1 |
| 20260905210544 | 26 | 327 | 8.0 | 14.5 | 0.00 | 0.03 | 0.03 | 76 | 1017.1 |
| 20260905210029 | 25 | 350 | 8.0 | 14.5 | 0.00 | 0.03 | 0.03 | 76 | 1017.2 |
| 20260905205545 | 25 | 348 | 4.8 | 16.1 | 0.00 | 0.03 | 0.03 | 76 | 1017.2 |
| 20260905205017 | 26 | 5 | 9.7 | 16.1 | 0.00 | 0.03 | 0.03 | 75 | 1017.4 |
| 20260905204537 | 26 | 325 | 8.0 | 14.5 | 0.00 | 0.03 | 0.03 | 74 | 1017.3 |
| 20260905204048 | 26 | 360 | 6.4 | 14.5 | 0.00 | 0.03 | 0.03 | 75 | 1017.2 |
| 20260905203524 | 25 | 326 | 9.7 | 14.5 | 0.00 | 0.03 | 0.03 | 75 | 1017.3 |
| 20260905203050 | 25 | 22 | 6.4 | 12.9 | 0.00 | 0.03 | 0.03 | 75 | 1017.4 |
| 20260905202541 | 25 | 34 | 8.0 | 12.9 | 0.00 | 0.03 | 0.03 | 75 | 1017.3 |
| 20260905202036 | 26 | 355 | 6.4 | 22.5 | 0.00 | 0.03 | 0.03 | 75 | 1017.4 |
| 20260905201534 | 26 | 32 | 6.4 | 22.5 | 0.00 | 0.03 | 0.03 | 75 | 1017.2 |
| 20260905201029 | 26 | 113 | 11.3 | 19.3 | 0.00 | 0.03 | 0.03 | 73 | 1017.2 |
| 20260905200525 | 26 | 21 | 11.3 | 19.3 | 0.00 | 0.03 | 0.03 | 74 | 1017.1 |
| 20260905200016 | 26 | 46 | 4.8 | 20.9 | 0.00 | 0.03 | 0.03 | 75 | 1017.1 |
| 20260905195532 | 26 | 43 | 9.7 | 20.9 | 0.00 | 0.03 | 0.03 | 76 | 1017.2 |
| 20260905195016 | 26 | 40 | 9.7 | 19.3 | 0.00 | 0.03 | 0.03 | 79 | 1017.1 |
| 20260905194527 | 26 | 360 | 6.4 | 22.5 | 0.00 | 0.03 | 0.03 | 78 | 1017.1 |
| 20260905194022 | 26 | 63 | 12.9 | 22.5 | 0.00 | 0.03 | 0.03 | 78 | 1017.2 |
| 20260905193553 | 26 | 52 | 11.3 | 22.5 | 0.00 | 0.03 | 0.03 | 79 | 1017.3 |
| 20260905193029 | 26 | 24 | 11.3 | 22.5 | 0.00 | 0.03 | 0.03 | 79 | 1017.3 |
| 20260905192524 | 25 | 333 | 9.7 | 24.1 | 0.00 | 0.03 | 0.03 | 81 | 1017.2 |
| 20260905192039 | 25 | 10 | 11.3 | 22.5 | 0.00 | 0.03 | 0.03 | 81 | 1017.2 |
| 20260905191535 | 25 | 63 | 14.5 | 22.5 | 0.00 | 0.03 | 0.03 | 81 | 1017.3 |
| 20260905191031 | 25 | 15 | 12.9 | 19.3 | 0.00 | 0.03 | 0.03 | 80 | 1017.3 |
| 20260905190523 | 25 | 355 | 9.7 | 19.3 | 0.00 | 0.03 | 0.03 | 80 | 1017.3 |
| 20260905190037 | 25 | 36 | 8.0 | 20.9 | 0.00 | 0.03 | 0.03 | 80 | 1017.3 |
| 20260905185530 | 26 | 39 | 11.3 | 20.9 | 0.00 | 0.03 | 0.03 | 78 | 1017.3 |
| 20260905185023 | 26 | 338 | 6.4 | 17.7 | 0.00 | 0.03 | 0.03 | 79 | 1017.3 |
| 20260905184520 | 26 | 11 | 6.4 | 16.1 | 0.00 | 0.03 | 0.03 | 80 | 1017.2 |
| 20260905184017 | 26 | 326 | 8.0 | 19.3 | 0.00 | 0.03 | 0.03 | 81 | 1017.3 |
| 20260905183538 | 25 | 44 | 11.3 | 19.3 | 0.00 | 0.03 | 0.03 | 81 | 1017.4 |
| 20260905183035 | 25 | 46 | 4.8 | 14.5 | 0.00 | 0.03 | 0.03 | 80 | 1017.3 |
| 20260905182521 | 25 | 28 | 8.0 | 17.7 | 0.00 | 0.03 | 0.03 | 81 | 1017.5 |
| 20260905182055 | 25 | 40 | 9.7 | 17.7 | 0.00 | 0.03 | 0.03 | 82 | 1017.5 |
| 20260905181538 | 25 | 35 | 6.4 | 14.5 | 0.00 | 0.03 | 0.03 | 85 | 1017.5 |
| 20260905181048 | 24 | 42 | 4.8 | 14.5 | 0.00 | 0.03 | 0.03 | 86 | 1017.5 |
| 20260905180543 | 24 | 36 | 8.0 | 14.5 | 0.00 | 0.03 | 0.03 | 86 | 1017.7 |
| 20260905180021 | 24 | 360 | 4.8 | 19.3 | 0.00 | 0.03 | 0.03 | 86 | 1017.9 |
| 20260905175551 | 23 | 5 | 11.3 | 19.3 | 0.00 | 0.03 | 0.03 | 86 | 1017.9 |
| 20260905175017 | 23 | 15 | 6.4 | 12.9 | 0.00 | 0.03 | 0.03 | 86 | 1017.7 |
| 20260905174547 | 24 | 67 | 1.6 | 9.7 | 0.00 | 0.03 | 0.03 | 86 | 1017.9 |
| 20260905174026 | 23 | 67 | 3.2 | 9.7 | 0.00 | 0.03 | 0.03 | 87 | 1017.9 |
| 20260905173518 | 23 | 66 | 3.2 | 12.9 | 0.00 | 0.03 | 0.03 | 87 | 1017.8 |
| 20260905173020 | 23 | 35 | 3.2 | 14.5 | 0.00 | 0.03 | 0.03 | 87 | 1017.8 |
| 20260905172534 | 23 | 350 | 8.0 | 14.5 | 0.00 | 0.03 | 0.03 | 86 | 1017.8 |
| 20260905172031 | 23 | 28 | 6.4 | 16.1 | 0.00 | 0.03 | 0.03 | 87 | 1017.7 |
| 20260905171539 | 23 | 24 | 9.7 | 16.1 | 0.00 | 0.03 | 0.03 | 87 | 1017.8 |
| 20260905171052 | 23 | 9 | 8.0 | 14.5 | 0.00 | 0.03 | 0.03 | 87 | 1017.8 |
| 20260905170523 | 23 | 23 | 6.4 | 14.5 | 0.00 | 0.03 | 0.03 | 88 | 1017.7 |
| 20260905170024 | 23 | 5 | 6.4 | 17.7 | 0.00 | 0.03 | 0.03 | 89 | 1017.7 |
| 20260905165520 | 23 | 22 | 6.4 | 17.7 | 0.00 | 0.03 | 0.03 | 90 | 1017.7 |
| 20260905165017 | 22 | 46 | 6.4 | 19.3 | 0.00 | 0.03 | 0.03 | 90 | 1017.8 |
| 20260905164521 | 22 | 49 | 9.7 | 19.3 | 0.00 | 0.03 | 0.03 | 91 | 1017.8 |
| 20260905164036 | 22 | 5 | 9.7 | 16.1 | 0.00 | 0.03 | 0.03 | 91 | 1017.8 |
| 20260905163518 | 22 | 46 | 4.8 | 14.5 | 0.00 | 0.03 | 0.03 | 91 | 1017.8 |
| 20260905163028 | 22 | 57 | 8.0 | 16.1 | 0.00 | 0.03 | 0.03 | 91 | 1017.9 |
| 20260905162522 | 22 | 62 | 6.4 | 17.7 | 0.00 | 0.03 | 0.03 | 92 | 1018.0 |
| 20260905162017 | 22 | 50 | 12.9 | 17.7 | 0.00 | 0.03 | 0.03 | 92 | 1018.0 |
| 20260905161520 | 22 | 30 | 8.0 | 17.7 | 0.00 | 0.03 | 0.03 | 93 | 1018.1 |
| 20260905161016 | 22 | 42 | 9.7 | 19.3 | 0.00 | 0.03 | 0.03 | 93 | 1018.0 |
| 20260905160533 | 22 | 49 | 8.0 | 19.3 | 0.00 | 0.03 | 0.03 | 93 | 1017.8 |
| 20260905160029 | 22 | 360 | 6.4 | 16.1 | 0.00 | 0.05 | 0.03 | 94 | 1017.8 |
| 20260905155525 | 22 | 42 | 11.3 | 16.1 | 0.00 | 0.05 | 0.03 | 94 | 1017.8 |
| 20260905155056 | 22 | 41 | 11.3 | 16.1 | 0.00 | 0.05 | 0.03 | 94 | 1017.7 |
| 20260905154530 | 22 | 69 | 4.8 | 11.3 | 0.00 | 0.05 | 0.03 | 95 | 1017.7 |
| 20260905154022 | 22 | 27 | 3.2 | 12.9 | 0.00 | 0.05 | 0.03 | 95 | 1017.6 |
| 20260905153539 | 22 | 34 | 6.4 | 14.5 | 0.00 | 0.05 | 0.03 | 95 | 1017.6 |
| 20260905153038 | 22 | 37 | 4.8 | 14.5 | 0.00 | 0.05 | 0.03 | 95 | 1017.6 |
| 20260905152519 | 22 | 50 | 3.2 | 14.5 | 0.00 | 0.05 | 0.03 | 95 | 1017.6 |
| 20260905152035 | 22 | 52 | 6.4 | 14.5 | 0.00 | 0.05 | 0.03 | 95 | 1017.6 |
| 20260905151533 | 22 | 74 | 3.2 | 14.5 | 0.00 | 0.05 | 0.03 | 96 | 1017.6 |
| 20260905150523 | 22 | 84 | 4.8 | 14.5 | 0.00 | 0.05 | 0.03 | 96 | 1017.4 |
| 20260905150037 | 22 | 26 | 4.8 | 14.5 | 0.00 | 0.05 | 0.03 | 95 | 1017.4 |
| 20260905145557 | 22 | 70 | 6.4 | 14.5 | 0.00 | 0.05 | 0.03 | 95 | 1017.4 |
| 20260905145035 | 22 | 46 | 4.8 | 16.1 | 0.00 | 0.05 | 0.03 | 96 | 1017.2 |
| 20260905144522 | 22 | 61 | 8.0 | 16.1 | 0.00 | 0.05 | 0.03 | 96 | 1017.1 |
| 20260905144037 | 22 | 42 | 4.8 | 9.7 | 0.00 | 0.05 | 0.03 | 96 | 1017.0 |
| 20260905143533 | 21 | 17 | 3.2 | 14.5 | 0.00 | 0.05 | 0.03 | 96 | 1017.0 |
| 20260905143020 | 21 | 90 | 3.2 | 16.1 | 0.00 | 0.05 | 0.03 | 96 | 1016.9 |
| 20260905142533 | 21 | 39 | 4.8 | 16.1 | 0.00 | 0.05 | 0.03 | 96 | 1016.9 |
| 20260905142019 | 21 | 20 | 9.7 | 16.1 | 0.00 | 0.05 | 0.03 | 96 | 1016.6 |
| 20260905141537 | 21 | 68 | 6.4 | 16.1 | 0.00 | 0.05 | 0.03 | 96 | 1016.7 |
| 20260905141056 | 21 | 53 | 6.4 | 16.1 | 0.00 | 0.05 | 0.03 | 96 | 1016.7 |
| 20260905140537 | 21 | 64 | 6.4 | 11.3 | 0.00 | 0.05 | 0.03 | 96 | 1016.7 |
| 20260905140054 | 21 | 39 | 6.4 | 11.3 | 0.00 | 0.05 | 0.03 | 96 | 1016.7 |
| 20260905135538 | 21 | 60 | 6.4 | 16.1 | 0.00 | 0.05 | 0.03 | 96 | 1016.5 |
| 20260905135034 | 21 | 26 | 4.8 | 16.1 | 0.00 | 0.05 | 0.03 | 96 | 1016.6 |
| 20260905134523 | 21 | 55 | 6.4 | 9.7 | 0.00 | 0.05 | 0.03 | 96 | 1016.4 |
| 20260905134036 | 21 | 33 | 4.8 | 19.3 | 0.00 | 0.05 | 0.03 | 96 | 1016.4 |
| 20260905133536 | 21 | 94 | 8.0 | 19.3 | 0.00 | 0.05 | 0.03 | 96 | 1016.3 |
| 20260905133018 | 21 | 72 | 3.2 | 16.1 | 0.00 | 0.05 | 0.03 | 96 | 1016.4 |
| 20260905132533 | 21 | 48 | 8.0 | 16.1 | 0.00 | 0.05 | 0.03 | 96 | 1016.4 |
| 20260905132029 | 21 | 71 | 8.0 | 12.9 | 0.00 | 0.05 | 0.03 | 96 | 1016.3 |
| 20260905131520 | 21 | 34 | 6.4 | 12.9 | 0.00 | 0.05 | 0.03 | 96 | 1016.4 |
| 20260905131017 | 21 | 21 | 6.4 | 12.9 | 0.00 | 0.05 | 0.03 | 96 | 1016.3 |
| 20260905130519 | 21 | 50 | 4.8 | 11.3 | 0.00 | 0.05 | 0.03 | 96 | 1016.2 |
| 20260905130033 | 21 | 40 | 4.8 | 12.9 | 0.00 | 0.05 | 0.03 | 96 | 1016.2 |
| 20260905125528 | 21 | 14 | 3.2 | 12.9 | 0.00 | 0.05 | 0.03 | 96 | 1016.2 |
| 20260905125043 | 21 | 49 | 3.2 | 14.5 | 0.00 | 0.05 | 0.03 | 96 | 1016.1 |
| 20260905124531 | 21 | 40 | 6.4 | 16.1 | 0.00 | 0.05 | 0.03 | 96 | 1016.2 |
| 20260905124020 | 21 | 42 | 4.8 | 16.1 | 0.00 | 0.05 | 0.03 | 96 | 1016.2 |
| 20260905123533 | 21 | 44 | 8.0 | 14.5 | 0.00 | 0.05 | 0.03 | 96 | 1016.2 |